NOAA NWS Hourly Roundups by Site

Regional Weather Roundup for Omaha, NE

To Select Another Site Choose from List

Select Site:  

000
ASUS43 KOAX 041113
RWRNE

WEATHER ROUNDUP FOR NEBRASKA
NATIONAL WEATHER SERVICE OMAHA NE
500 AM CST MON MAR 04 2024

NOTES: SATELLITE DATA IS BEING USED TO AUGMENT CLOUD COVER ABOVE
       12000 FEET.
       "FAIR" INDICATES FEW OR NO CLOUDS BELOW 12,000 FEET WITH NO
       SIGNIFICANT WEATHER AND/OR OBSTRUCTIONS TO VISIBILITY.


NEZ001>004-019>022-054>056-041200-
NEBRASKA PANHANDLE

CITY           SKY/WX    TMP DP  RH WIND       PRES   REMARKS
SCOTTSBLUFF    CLOUDY    35   8  32 W8        29.82R WCI  29
ALLIANCE       CLOUDY    32  12  43 W9        29.81R WCI  24
CHADRON        CLOUDY    28  18  66 CALM      29.83R
GORDON         MOCLDY    27  15  60 E6        29.81S WCI  20
KIMBALL        CLOUDY    32   3  29 NW10      29.81R WCI  24
SIDNEY         CLOUDY    35   1  23 NW13      29.82R WCI  26
$$

NEZ057>060-069>072-079>082-041200-
SOUTHWEST NEBRASKA

CITY           SKY/WX    TMP DP  RH WIND       PRES   REMARKS
NORTH PLATTE   PTCLDY    32  18  56 NE9       29.84S WCI  24
GRANT          CLOUDY    36  10  35 N8        29.84R WCI  29
IMPERIAL       PTCLDY    26  18  71 N7        29.84R WCI  18
LEXINGTON      CLEAR     33  19  56 N15       29.83R WCI  23
MCCOOK         CLEAR     39  20  46 N17G29    29.82R WCI  30
OGALLALA       CLOUDY    40   3  21 NW10      29.84R WCI  34
$$

NEZ005>010-023>029-035>040-094-041200-
NORTH CENTRAL NEBRASKA

CITY           SKY/WX    TMP DP  RH WIND       PRES   REMARKS
VALENTINE      CLOUDY    32  19  58 E9        29.86S WCI  24
AINSWORTH      CLOUDY    33  20  59 NE5       29.88R WCI  28
BROKEN BOW     CLEAR     28  17  63 NW7       29.85S WCI  21
O`NEILL        MOCLDY    29  19  66 N3        29.89F
ORD            CLEAR     34  18  52 N8        29.85F WCI  27
THEDFORD       CLOUDY    33  17  51 S3        29.85S
$$

NEZ041-046>049-061>064-073>077-083>087-041200-
SOUTH CENTRAL NEBRASKA

CITY           SKY/WX    TMP DP  RH WIND       PRES   REMARKS
GRAND ISLAND   MOCLDY    39  19  44 N17       29.79R WCI  30
AURORA         CLOUDY    39  20  45 N22       29.77R WCI  29
HASTINGS       PTCLDY    38  21  50 N22       29.74R WCI  27
HEBRON         CLOUDY    51  30  45 NE17G25   29.67R
HOLDREGE       CLEAR     35  17  48 N21G26    29.76R WCI  23
KEARNEY        CLEAR     35  14  42 N22G31    29.79R WCI  23
YORK           MOCLDY    39  21  48 N24G32    29.75R WCI  28
$$

NEZ011>018-030>034-042>045-041200-
NORTHEAST NEBRASKA

CITY           SKY/WX    TMP DP  RH WIND       PRES   REMARKS
NORFOLK        CLOUDY    39  18  42 N16       29.86R WCI  30
ALBION         CLOUDY    35  15  43 N13G20    29.86R WCI  26
BLAIR          CLOUDY    42  27  55 NE14G20   29.77F
COLUMBUS       CLOUDY    41  19  41 N16G23    29.82R
FREMONT        CLOUDY    43  21  41 N9G17     29.80S
TEKAMAH        CLOUDY    42  25  50 N15       29.82F
WAYNE            N/A    N/A N/A N/A MISG        N/A
$$

NEZ050>053-065>068-078-088>093-041200-
SOUTHEAST NEBRASKA

CITY           SKY/WX    TMP DP  RH WIND       PRES   REMARKS
LINCOLN        CLOUDY    47  27  45 NE21G29   29.74S
OMAHA EPPLEY   CLOUDY    44  29  55 N10       29.78F
BEATRICE       CLOUDY    48  31  52 NE14      29.67R
FALLS CITY     CLOUDY    56  37  49 E10       29.65F
NEBRASKA CITY  CLOUDY    48  28  44 NE14      29.70F
PLATTSMOUTH    CLOUDY    47  29  50 NE16G22   29.74S
$$

NEZ044-045-051>053-067-041200-
OMAHA AREA

CITY           SKY/WX    TMP DP  RH WIND       PRES   REMARKS
OMAHA EPPLEY   CLOUDY    44  29  55 N10       29.78F
BLAIR          CLOUDY    42  27  55 NE14G20   29.77F
FREMONT        CLOUDY    43  21  41 N9G17     29.80S
MILLARD        CLOUDY    47  28  47 NE6       29.78S
OFFUTT AFB     CLOUDY    49  25  39 NE20      29.74F
PLATTSMOUTH    CLOUDY    47  29  50 NE16G22   29.74S
WAHOO          CLOUDY    42  26  52 N14       29.78S
$$


 

View Past Reports for Omaha, NE.

Products Courtesy of NOAA-NWS
NWS Information Parsing Script by Ken True at Saratoga Weather - Script by SE Lincoln Weather.